Starlink 32001

operational
NORAD ID: 60110 Int'l Des: 2024-117 Owner: SPXS Country: US Constellation: starlink
LEOCIRCULAR

About Starlink 32001

Description loading...

Live Position

Loading 3D Globe...

Upcoming Passes

Altitude History

Altitude vs Time

uPlot chart will show altitude changes over time

Two-Line Element Set

1 60110U 24117V 25303.67044512 .00000098 00000-0 15450-4 0 9991
2 60110 53.1605 280.7847 0001410 89.6820 270.4342 15.30199450 76984
Epoch: Oct 30, 2025 • Age: 9 hours

Current Status

Altitude 478.1 km
Velocity 7.63 km/s
Sub-Earth Point -10.02°S, 55.6°E
Launch Date Jun 23, 2024
Age 1.3 years
Type internet

Technical Details

Classification Payload
Mass 730.00 kg
Dry Mass 700.00 kg
Total Mass 730.00 kg
Length 0.30 m
Diameter 4.10 m
Span 29.00 m
Shape Box + pan
Manufacturer SPXS
Bus Type Starlink V2M
Phase Status In Orbit
Owner/State SPXS/US

Large Constellations

Loading constellations...